Year,Month,Day,Hour,Minute,Value (Times are PST for temperature in C)
2009,06,15,00,00,12.40
2009,06,15,00,01,12.40
2009,06,15,00,02,12.40
2009,06,15,00,03,12.40
2009,06,15,00,04,12.40
2009,06,15,00,05,12.40
2009,06,15,00,06,12.40
2009,06,15,00,07,12.40
2009,06,15,00,08,12.40
2009,06,15,00,09,12.40
2009,06,15,00,10,12.40
2009,06,15,00,11,12.40
2009,06,15,00,12,12.40
2009,06,15,00,18,12.40
2009,06,15,00,19,12.40
2009,06,15,00,20,12.40
2009,06,15,00,21,12.40
2009,06,15,00,22,12.30
2009,06,15,00,23,12.30
2009,06,15,00,24,12.30
2009,06,15,00,25,12.30
2009,06,15,00,26,12.30
2009,06,15,00,27,12.30
2009,06,15,00,28,12.30
2009,06,15,00,29,12.30
2009,06,15,00,30,12.20
2009,06,15,00,31,12.20
2009,06,15,00,32,12.20
2009,06,15,00,33,12.20
2009,06,15,00,34,12.20
2009,06,15,00,35,12.20
2009,06,15,00,36,12.20
2009,06,15,00,37,12.10
2009,06,15,00,38,12.10
2009,06,15,00,39,12.10
2009,06,15,00,40,12.10
2009,06,15,00,41,12.10
2009,06,15,00,42,12.10
2009,06,15,00,43,12.10
2009,06,15,00,44,12.10
2009,06,15,00,45,12.10
2009,06,15,00,46,12.10
2009,06,15,00,47,12.10
2009,06,15,00,48,12.10
2009,06,15,00,49,12.10
2009,06,15,00,50,12.10
2009,06,15,00,51,12.10
2009,06,15,00,52,12.10
2009,06,15,00,53,12.10
2009,06,15,00,54,12.10
2009,06,15,00,55,12.10
2009,06,15,00,56,12.10
2009,06,15,00,57,12.10
2009,06,15,00,58,12.10
2009,06,15,00,59,12.10
2009,06,15,01,00,12.00
2009,06,15,01,01,12.00
2009,06,15,01,02,12.00
2009,06,15,01,03,12.00
2009,06,15,01,04,12.00
2009,06,15,01,05,12.00
2009,06,15,01,06,12.00
2009,06,15,01,07,12.00
2009,06,15,01,08,11.90
2009,06,15,01,09,11.90
2009,06,15,01,10,11.90
2009,06,15,01,11,11.90
2009,06,15,01,12,11.90
2009,06,15,01,13,11.90
2009,06,15,01,14,11.90
2009,06,15,01,15,11.90
2009,06,15,01,16,11.90
2009,06,15,01,17,11.80
2009,06,15,01,18,11.80
2009,06,15,01,19,11.80
2009,06,15,01,20,11.80
2009,06,15,01,21,11.80
2009,06,15,01,22,11.80
2009,06,15,01,23,11.80
2009,06,15,01,24,11.80
2009,06,15,01,25,11.80
2009,06,15,01,26,11.80
2009,06,15,01,27,11.80
2009,06,15,01,28,11.80
2009,06,15,01,29,11.80
2009,06,15,01,30,11.80
2009,06,15,01,31,11.70
2009,06,15,01,32,11.70
2009,06,15,01,33,11.70
2009,06,15,01,34,11.60
2009,06,15,01,35,11.60
2009,06,15,01,36,11.60
2009,06,15,01,37,11.60
2009,06,15,01,38,11.50
2009,06,15,01,39,11.50
2009,06,15,01,40,11.50
2009,06,15,01,41,11.50
2009,06,15,01,42,11.40
2009,06,15,01,43,11.40
2009,06,15,01,44,11.40
2009,06,15,01,45,11.40
2009,06,15,01,46,11.40
2009,06,15,01,47,11.40
2009,06,15,01,48,11.40
2009,06,15,01,49,11.40
2009,06,15,01,50,11.40
2009,06,15,01,51,11.40
2009,06,15,01,52,11.40
2009,06,15,01,53,11.40
2009,06,15,01,54,11.40
2009,06,15,01,55,11.40
2009,06,15,01,56,11.40
2009,06,15,01,57,11.40
2009,06,15,01,58,11.40
2009,06,15,01,59,11.30
2009,06,15,02,00,11.30
2009,06,15,02,01,11.30
2009,06,15,02,02,11.30
2009,06,15,02,03,11.30
2009,06,15,02,04,11.20
2009,06,15,02,05,11.20
2009,06,15,02,06,11.20
2009,06,15,02,07,11.20
2009,06,15,02,08,11.10
2009,06,15,02,09,11.10
2009,06,15,02,10,11.10
2009,06,15,02,11,11.00
2009,06,15,02,12,11.00
2009,06,15,02,13,11.00
2009,06,15,02,14,10.90
2009,06,15,02,15,10.90
2009,06,15,02,16,10.90
2009,06,15,02,17,10.90
2009,06,15,02,18,10.80
2009,06,15,02,19,10.80
2009,06,15,02,20,10.80
2009,06,15,02,21,10.80
2009,06,15,02,22,10.70
2009,06,15,02,23,10.70
2009,06,15,02,24,10.70
2009,06,15,02,25,10.70
2009,06,15,02,26,10.70
2009,06,15,02,27,10.60
2009,06,15,02,28,10.60
2009,06,15,02,29,10.60
2009,06,15,02,30,10.60
2009,06,15,02,31,10.60
2009,06,15,02,32,10.60
2009,06,15,02,33,10.50
2009,06,15,02,34,10.50
2009,06,15,02,35,10.40
2009,06,15,02,36,10.40
2009,06,15,02,37,10.40
2009,06,15,02,38,10.40
2009,06,15,02,39,10.40
2009,06,15,02,40,10.30
2009,06,15,02,41,10.30
2009,06,15,02,42,10.30
2009,06,15,02,43,10.30
2009,06,15,02,44,10.30
2009,06,15,02,45,10.30
2009,06,15,02,46,10.20
2009,06,15,02,47,10.20
2009,06,15,02,48,10.20
2009,06,15,02,49,10.20
2009,06,15,02,50,10.20
2009,06,15,02,51,10.20
2009,06,15,02,52,10.20
2009,06,15,02,53,10.10
2009,06,15,02,54,10.10
2009,06,15,02,55,10.10
2009,06,15,02,56,10.10
2009,06,15,02,57,10.00
2009,06,15,02,58,10.00
2009,06,15,02,59,9.90
2009,06,15,03,00,9.90
2009,06,15,03,01,9.90
2009,06,15,03,02,9.90
2009,06,15,03,03,9.80
2009,06,15,03,04,9.80
2009,06,15,03,05,9.80
2009,06,15,03,06,9.80
2009,06,15,03,07,9.80
2009,06,15,03,08,9.80
2009,06,15,03,09,9.80
2009,06,15,03,10,9.80
2009,06,15,03,11,9.80
2009,06,15,03,12,9.70
2009,06,15,03,13,9.70
2009,06,15,03,14,9.70
2009,06,15,03,15,9.70
2009,06,15,03,16,9.70
2009,06,15,03,17,9.60
2009,06,15,03,18,9.60
2009,06,15,03,19,9.60
2009,06,15,03,20,9.60
2009,06,15,03,21,9.60
2009,06,15,03,22,9.60
2009,06,15,03,23,9.60
2009,06,15,03,24,9.50
2009,06,15,03,25,9.50
2009,06,15,03,26,9.50
2009,06,15,03,27,9.50
2009,06,15,03,28,9.40
2009,06,15,03,29,9.40
2009,06,15,03,30,9.40
2009,06,15,03,31,9.40
2009,06,15,03,32,9.40
2009,06,15,03,33,9.30
2009,06,15,03,34,9.30
2009,06,15,03,35,9.30
2009,06,15,03,36,9.30
2009,06,15,03,37,9.30
2009,06,15,03,38,9.40
2009,06,15,03,39,9.30
2009,06,15,03,40,9.40
2009,06,15,03,41,9.40
2009,06,15,03,42,9.40
2009,06,15,03,43,9.40
2009,06,15,03,44,9.40
2009,06,15,03,45,9.40
2009,06,15,03,46,9.40
2009,06,15,03,47,9.30
2009,06,15,03,48,9.30
2009,06,15,03,49,9.30
2009,06,15,03,50,9.30
2009,06,15,03,51,9.30
2009,06,15,03,52,9.30
2009,06,15,03,53,9.30
2009,06,15,03,54,9.20
2009,06,15,03,55,9.20
2009,06,15,03,56,9.20
2009,06,15,03,57,9.20
2009,06,15,03,58,9.20
2009,06,15,03,59,9.20
2009,06,15,04,00,9.20
2009,06,15,04,01,9.10
2009,06,15,04,02,9.10
2009,06,15,04,03,9.10
2009,06,15,04,04,9.10
2009,06,15,04,05,9.10
2009,06,15,04,06,9.10
2009,06,15,04,07,9.10
2009,06,15,04,08,9.20
2009,06,15,04,09,9.20
2009,06,15,04,10,9.20
2009,06,15,04,11,9.20
2009,06,15,04,12,9.20
2009,06,15,04,13,9.20
2009,06,15,04,14,9.20
2009,06,15,04,15,9.20
2009,06,15,04,16,9.20
2009,06,15,04,17,9.20
2009,06,15,04,18,9.20
2009,06,15,04,19,9.20
2009,06,15,04,20,9.20
2009,06,15,04,21,9.20
2009,06,15,04,22,9.20
2009,06,15,04,23,9.20
2009,06,15,04,24,9.20
2009,06,15,04,25,9.20
2009,06,15,04,26,9.20
2009,06,15,04,27,9.20
2009,06,15,04,28,9.20
2009,06,15,04,29,9.20
2009,06,15,04,30,9.20
2009,06,15,04,31,9.20
2009,06,15,04,32,9.20
2009,06,15,04,33,9.10
2009,06,15,04,34,9.10
2009,06,15,04,35,9.10
2009,06,15,04,36,9.10
2009,06,15,04,37,9.10
2009,06,15,04,38,9.10
2009,06,15,04,39,9.10
2009,06,15,04,40,9.10
2009,06,15,04,41,9.00
2009,06,15,04,42,9.00
2009,06,15,04,43,9.00
2009,06,15,04,44,8.90
2009,06,15,04,45,8.90
2009,06,15,04,46,8.90
2009,06,15,04,47,8.90
2009,06,15,04,48,8.90
2009,06,15,04,49,8.90
2009,06,15,04,50,8.90
2009,06,15,04,51,8.90
2009,06,15,04,52,8.90
2009,06,15,04,53,8.90
2009,06,15,04,54,8.90
2009,06,15,04,55,8.90
2009,06,15,04,56,8.90
2009,06,15,04,57,8.90
2009,06,15,04,58,8.90
2009,06,15,04,59,8.90
2009,06,15,05,00,8.90
2009,06,15,05,01,8.90
2009,06,15,05,02,8.90
2009,06,15,05,03,8.90
2009,06,15,05,04,8.90
2009,06,15,05,05,9.00
2009,06,15,05,06,9.00
2009,06,15,05,07,9.00
2009,06,15,05,08,9.00
2009,06,15,05,09,9.00
2009,06,15,05,10,9.00
2009,06,15,05,11,9.00
2009,06,15,05,12,9.00
2009,06,15,05,13,9.00
2009,06,15,05,14,9.00
2009,06,15,05,15,9.00
2009,06,15,05,16,9.00
2009,06,15,05,17,9.00
2009,06,15,05,18,9.00
2009,06,15,05,19,9.00
2009,06,15,05,20,9.00
2009,06,15,05,21,9.00
2009,06,15,05,22,9.00
2009,06,15,05,23,9.00
2009,06,15,05,24,9.00
2009,06,15,05,25,9.10
2009,06,15,05,26,9.10
2009,06,15,05,27,9.00
2009,06,15,05,28,9.10
2009,06,15,05,29,9.10
2009,06,15,05,30,9.10
2009,06,15,05,31,9.10
2009,06,15,05,32,9.10
2009,06,15,05,33,9.10
2009,06,15,05,34,9.10
2009,06,15,05,35,9.10
2009,06,15,05,36,9.10
2009,06,15,05,37,9.10
2009,06,15,05,38,9.10
2009,06,15,05,39,9.10
2009,06,15,05,40,9.10
2009,06,15,05,41,9.10
2009,06,15,05,42,9.10
2009,06,15,05,43,9.10
2009,06,15,05,44,9.10
2009,06,15,05,45,9.10
2009,06,15,05,46,9.10
2009,06,15,05,47,9.10
2009,06,15,05,48,9.10
2009,06,15,05,49,9.10
2009,06,15,05,50,9.10
2009,06,15,05,51,9.10
2009,06,15,05,52,9.10
2009,06,15,05,53,9.10
2009,06,15,05,54,9.10
2009,06,15,05,55,9.10
2009,06,15,05,56,9.10
2009,06,15,05,57,9.10
2009,06,15,05,58,9.10
2009,06,15,05,59,9.20
2009,06,15,06,00,9.20
2009,06,15,06,01,9.20
2009,06,15,06,02,9.20
2009,06,15,06,03,9.20
2009,06,15,06,04,9.20
2009,06,15,06,05,9.20
2009,06,15,06,06,9.20
2009,06,15,06,07,9.20
2009,06,15,06,08,9.20
2009,06,15,06,09,9.20
2009,06,15,06,10,9.20
2009,06,15,06,11,9.20
2009,06,15,06,12,9.20
2009,06,15,06,13,9.30
2009,06,15,06,14,9.30
2009,06,15,06,15,9.30
2009,06,15,06,16,9.30
2009,06,15,06,17,9.30
2009,06,15,06,18,9.40
2009,06,15,06,19,9.40
2009,06,15,06,20,9.40
2009,06,15,06,21,9.40
2009,06,15,06,22,9.40
2009,06,15,06,23,9.50
2009,06,15,06,24,9.50
2009,06,15,06,25,9.50
2009,06,15,06,26,9.50
2009,06,15,06,27,9.60
2009,06,15,06,28,9.60
2009,06,15,06,29,9.60
2009,06,15,06,30,9.60
2009,06,15,06,31,9.70
2009,06,15,06,32,9.70
2009,06,15,06,33,9.70
2009,06,15,06,34,9.70
2009,06,15,06,35,9.80
2009,06,15,06,36,9.80
2009,06,15,06,37,9.80
2009,06,15,06,38,9.90
2009,06,15,06,39,9.90
2009,06,15,06,40,10.00
2009,06,15,06,41,10.00
2009,06,15,06,42,10.10
2009,06,15,06,43,10.20
2009,06,15,06,44,10.20
2009,06,15,06,45,10.30
2009,06,15,06,46,10.40
2009,06,15,06,47,10.50
2009,06,15,06,48,10.60
2009,06,15,06,49,10.60
2009,06,15,06,50,10.80
2009,06,15,06,51,10.90
2009,06,15,06,52,11.00
2009,06,15,06,53,11.10
2009,06,15,06,54,11.20
2009,06,15,06,55,11.30
2009,06,15,06,56,11.40
2009,06,15,06,57,11.40
2009,06,15,06,58,11.50
2009,06,15,06,59,11.50
2009,06,15,07,00,11.60
2009,06,15,07,01,11.60
2009,06,15,07,02,11.60
2009,06,15,07,03,11.70
2009,06,15,07,04,11.70
2009,06,15,07,05,11.70
2009,06,15,07,06,11.80
2009,06,15,07,07,11.80
2009,06,15,07,08,11.90
2009,06,15,07,09,11.90
2009,06,15,07,10,12.00
2009,06,15,07,11,12.10
2009,06,15,07,12,12.10
2009,06,15,07,13,12.20
2009,06,15,07,14,12.20
2009,06,15,07,15,12.30
2009,06,15,07,16,12.30
2009,06,15,07,17,12.40
2009,06,15,07,18,12.50
2009,06,15,07,19,12.50
2009,06,15,07,20,12.60
2009,06,15,07,21,12.60
2009,06,15,07,22,12.70
2009,06,15,07,23,12.70
2009,06,15,07,24,12.80
2009,06,15,07,25,12.80
2009,06,15,07,26,12.80
2009,06,15,07,27,12.90
2009,06,15,07,28,12.90
2009,06,15,07,29,13.00
2009,06,15,07,30,13.00
2009,06,15,07,31,13.10
2009,06,15,07,32,13.20
2009,06,15,07,33,13.30
2009,06,15,07,34,13.40
2009,06,15,07,35,13.50
2009,06,15,07,36,13.60
2009,06,15,07,37,13.60
2009,06,15,07,38,13.70
2009,06,15,07,39,13.80
2009,06,15,07,40,14.00
2009,06,15,07,41,14.10
2009,06,15,07,42,14.20
2009,06,15,07,43,14.30
2009,06,15,07,44,14.40
2009,06,15,07,45,14.50
2009,06,15,07,46,14.60
2009,06,15,07,47,14.60
2009,06,15,07,48,14.70
2009,06,15,07,49,14.80
2009,06,15,07,50,14.80
2009,06,15,07,51,14.90
2009,06,15,07,52,15.00
2009,06,15,07,53,15.00
2009,06,15,07,54,15.00
2009,06,15,07,55,15.00
2009,06,15,07,56,15.00
2009,06,15,07,57,15.20
2009,06,15,07,58,15.30
2009,06,15,07,59,15.40
2009,06,15,08,00,15.40
2009,06,15,08,01,15.50
2009,06,15,08,02,15.50
2009,06,15,08,03,15.30
2009,06,15,08,04,15.30
2009,06,15,08,05,15.10
2009,06,15,08,06,15.00
2009,06,15,08,07,15.00
2009,06,15,08,08,14.80
2009,06,15,08,09,14.80
2009,06,15,08,10,14.70
2009,06,15,08,11,14.70
2009,06,15,08,12,14.60
2009,06,15,08,13,14.50
2009,06,15,08,14,14.50
2009,06,15,08,15,14.50
2009,06,15,08,16,14.60
2009,06,15,08,17,14.50
2009,06,15,08,18,14.50
2009,06,15,08,19,14.50
2009,06,15,08,20,14.60
2009,06,15,08,21,14.60
2009,06,15,08,22,14.70
2009,06,15,08,23,14.70
2009,06,15,08,24,14.70
2009,06,15,08,25,14.70
2009,06,15,08,26,14.70
2009,06,15,08,27,14.70
2009,06,15,08,28,14.70
2009,06,15,08,29,14.70
2009,06,15,08,30,14.80
2009,06,15,08,31,14.80
2009,06,15,08,32,14.80
2009,06,15,08,33,14.80
2009,06,15,08,34,14.90
2009,06,15,08,35,15.00
2009,06,15,08,36,15.00
2009,06,15,08,37,15.00
2009,06,15,08,38,15.00
2009,06,15,08,39,15.00
2009,06,15,08,40,15.00
2009,06,15,08,41,15.00
2009,06,15,08,42,15.00
2009,06,15,08,43,15.00
2009,06,15,08,44,15.00
2009,06,15,08,45,15.00
2009,06,15,08,46,15.00
2009,06,15,08,47,15.10
2009,06,15,08,48,15.20
2009,06,15,08,49,15.20
2009,06,15,08,50,15.30
2009,06,15,08,51,15.30
2009,06,15,08,52,15.30
2009,06,15,08,53,15.30
2009,06,15,08,54,15.40
2009,06,15,08,55,15.50
2009,06,15,08,56,15.60
2009,06,15,08,57,15.50
2009,06,15,08,58,15.60
2009,06,15,08,59,15.60
2009,06,15,09,00,15.60
2009,06,15,09,01,15.60
2009,06,15,09,02,15.60
2009,06,15,09,03,15.60
2009,06,15,09,04,15.60
2009,06,15,09,05,15.60
2009,06,15,09,06,15.60
2009,06,15,09,07,15.60
2009,06,15,09,08,15.60
2009,06,15,09,09,15.70
2009,06,15,09,10,15.70
2009,06,15,09,11,15.70
2009,06,15,09,12,15.70
2009,06,15,09,13,15.70
2009,06,15,09,14,15.60
2009,06,15,09,15,15.60
2009,06,15,09,16,15.60
2009,06,15,09,17,15.60
2009,06,15,09,18,15.60
2009,06,15,09,19,15.60
2009,06,15,09,20,15.70
2009,06,15,09,21,15.90
2009,06,15,09,22,16.00
2009,06,15,09,23,16.10
2009,06,15,09,24,16.20
2009,06,15,09,25,16.30
2009,06,15,09,26,16.40
2009,06,15,09,27,16.50
2009,06,15,09,28,16.50
2009,06,15,09,29,16.40
2009,06,15,09,30,16.40
2009,06,15,09,31,16.40
2009,06,15,09,32,16.50
2009,06,15,09,33,16.50
2009,06,15,09,34,16.60
2009,06,15,09,35,16.70
2009,06,15,09,36,16.70
2009,06,15,09,37,16.70
2009,06,15,09,38,16.60
2009,06,15,09,39,16.40
2009,06,15,09,40,16.50
2009,06,15,09,41,16.50
2009,06,15,09,42,16.60
2009,06,15,09,43,16.60
2009,06,15,09,44,16.70
2009,06,15,09,45,16.70
2009,06,15,09,46,16.80
2009,06,15,09,47,16.80
2009,06,15,09,48,16.90
2009,06,15,09,49,16.80
2009,06,15,09,50,16.90
2009,06,15,09,51,16.90
2009,06,15,09,52,16.80
2009,06,15,09,53,16.80
2009,06,15,09,54,16.80
2009,06,15,09,55,16.80
2009,06,15,09,56,16.90
2009,06,15,09,57,16.90
2009,06,15,09,58,16.70
2009,06,15,09,59,16.70
2009,06,15,10,00,16.70
2009,06,15,10,01,16.80
2009,06,15,10,02,16.80
2009,06,15,10,03,16.70
2009,06,15,10,04,16.70
2009,06,15,10,05,16.70
2009,06,15,10,06,16.70
2009,06,15,10,07,16.70
2009,06,15,10,08,16.80
2009,06,15,10,09,16.90
2009,06,15,10,10,17.00
2009,06,15,10,11,17.10
2009,06,15,10,12,17.20
2009,06,15,10,13,17.10
2009,06,15,10,14,17.00
2009,06,15,10,15,17.00
2009,06,15,10,16,17.00
2009,06,15,10,17,17.00
2009,06,15,10,18,16.90
2009,06,15,10,19,16.90
2009,06,15,10,20,17.00
2009,06,15,10,21,17.00
2009,06,15,10,22,16.90
2009,06,15,10,23,16.90
2009,06,15,10,24,16.90
2009,06,15,10,25,17.00
2009,06,15,10,26,17.00
2009,06,15,10,27,17.10
2009,06,15,10,28,17.10
2009,06,15,10,29,17.20
2009,06,15,10,30,17.00
2009,06,15,10,31,16.90
2009,06,15,10,32,16.90
2009,06,15,10,33,16.90
2009,06,15,10,34,16.90
2009,06,15,10,35,17.00
2009,06,15,10,36,17.10
2009,06,15,10,37,17.20
2009,06,15,10,38,17.30
2009,06,15,10,39,17.40
2009,06,15,10,40,17.50
2009,06,15,10,41,17.50
2009,06,15,10,42,17.60
2009,06,15,10,43,17.70
2009,06,15,10,44,17.90
2009,06,15,10,45,18.10
2009,06,15,10,46,18.20
2009,06,15,10,47,18.30
2009,06,15,10,48,18.30
2009,06,15,10,49,18.20
2009,06,15,10,50,18.10
2009,06,15,10,51,17.90
2009,06,15,10,52,17.80
2009,06,15,10,53,17.80
2009,06,15,10,54,17.80
2009,06,15,10,55,17.70
2009,06,15,10,56,17.70
2009,06,15,10,57,17.70
2009,06,15,10,58,17.80
2009,06,15,10,59,17.90
2009,06,15,11,00,18.00
2009,06,15,11,01,18.00
2009,06,15,11,02,18.00
2009,06,15,11,03,18.00
2009,06,15,11,04,17.90
2009,06,15,11,05,17.80
2009,06,15,11,06,17.70
2009,06,15,11,07,17.70
2009,06,15,11,08,17.70
2009,06,15,11,09,17.80
2009,06,15,11,10,17.90
2009,06,15,11,11,18.00
2009,06,15,11,12,18.10
2009,06,15,11,13,18.00
2009,06,15,11,14,17.90
2009,06,15,11,15,17.90
2009,06,15,11,16,18.00
2009,06,15,11,17,18.10
2009,06,15,11,18,18.30
2009,06,15,11,19,18.50
2009,06,15,11,20,18.50
2009,06,15,11,21,18.40
2009,06,15,11,22,18.20
2009,06,15,11,23,18.20
2009,06,15,11,24,18.10
2009,06,15,11,25,18.10
2009,06,15,11,26,18.00
2009,06,15,11,27,17.90
2009,06,15,11,28,17.90
2009,06,15,11,29,17.90
2009,06,15,11,30,17.90
2009,06,15,11,31,17.90
2009,06,15,11,32,17.80
2009,06,15,11,33,18.00
2009,06,15,11,34,18.20
2009,06,15,11,35,18.40
2009,06,15,11,36,18.60
2009,06,15,11,37,18.80
2009,06,15,11,38,18.90
2009,06,15,11,39,18.90
2009,06,15,11,40,19.00
2009,06,15,11,41,19.00
2009,06,15,11,42,18.90
2009,06,15,11,43,18.90
2009,06,15,11,44,18.90
2009,06,15,11,45,18.90
2009,06,15,11,46,18.90
2009,06,15,11,47,19.00
2009,06,15,11,48,19.10
2009,06,15,11,49,19.10
2009,06,15,11,50,19.30
2009,06,15,11,51,19.30
2009,06,15,11,52,19.30
2009,06,15,11,53,19.20
2009,06,15,11,54,19.10
2009,06,15,11,55,19.00
2009,06,15,11,56,19.00
2009,06,15,11,57,19.00
2009,06,15,11,58,19.10
2009,06,15,11,59,19.20
2009,06,15,12,00,19.20
2009,06,15,12,01,19.20
2009,06,15,12,02,19.30
2009,06,15,12,03,19.30
2009,06,15,12,04,19.40
2009,06,15,12,05,19.30
2009,06,15,12,06,19.20
2009,06,15,12,07,19.10
2009,06,15,12,08,19.10
2009,06,15,12,09,19.00
2009,06,15,12,10,19.10
2009,06,15,12,11,19.20
2009,06,15,12,12,19.30
2009,06,15,12,13,19.40
2009,06,15,12,14,19.30
2009,06,15,12,15,19.20
2009,06,15,12,16,19.10
2009,06,15,12,17,19.10
2009,06,15,12,18,19.10
2009,06,15,12,19,19.10
2009,06,15,12,20,19.20
2009,06,15,12,21,19.30
2009,06,15,12,22,19.40
2009,06,15,12,23,19.60
2009,06,15,12,24,19.70
2009,06,15,12,25,19.70
2009,06,15,12,26,19.70
2009,06,15,12,27,19.70
2009,06,15,12,28,19.80
2009,06,15,12,29,19.90
2009,06,15,12,30,19.90
2009,06,15,12,31,19.90
2009,06,15,12,32,19.80
2009,06,15,12,33,19.70
2009,06,15,12,34,19.60
2009,06,15,12,35,19.50
2009,06,15,12,36,19.30
2009,06,15,12,37,19.40
2009,06,15,12,38,19.60
2009,06,15,12,39,19.60
2009,06,15,12,40,19.50
2009,06,15,12,41,19.50
2009,06,15,12,42,19.40
2009,06,15,12,43,19.40
2009,06,15,12,44,19.40
2009,06,15,12,45,19.50
2009,06,15,12,46,19.60
2009,06,15,12,47,19.60
2009,06,15,12,48,19.50
2009,06,15,12,49,19.40
2009,06,15,12,50,19.30
2009,06,15,12,51,19.40
2009,06,15,12,52,19.60
2009,06,15,12,53,19.70
2009,06,15,12,54,19.80
2009,06,15,12,55,19.90
2009,06,15,12,56,20.00
2009,06,15,12,57,20.10
2009,06,15,12,58,20.20
2009,06,15,12,59,20.20
2009,06,15,13,00,20.00
2009,06,15,13,01,19.90
2009,06,15,13,02,19.80
2009,06,15,13,03,19.80
2009,06,15,13,04,19.70
2009,06,15,13,05,19.60
2009,06,15,13,06,19.60
2009,06,15,13,07,19.60
2009,06,15,13,08,19.60
2009,06,15,13,09,19.50
2009,06,15,13,10,19.40
2009,06,15,13,11,19.40
2009,06,15,13,12,19.40
2009,06,15,13,13,19.40
2009,06,15,13,14,19.30
2009,06,15,13,15,19.40
2009,06,15,13,16,19.50
2009,06,15,13,17,19.50
2009,06,15,13,18,19.40
2009,06,15,13,19,19.20
2009,06,15,13,20,19.10
2009,06,15,13,21,19.10
2009,06,15,13,22,19.10
2009,06,15,13,23,19.10
2009,06,15,13,24,19.20
2009,06,15,13,25,19.20
2009,06,15,13,26,19.30
2009,06,15,13,27,19.30
2009,06,15,13,28,19.20
2009,06,15,13,29,19.10
2009,06,15,13,30,19.10
2009,06,15,13,31,19.10
2009,06,15,13,32,19.20
2009,06,15,13,33,19.30
2009,06,15,13,34,19.60
2009,06,15,13,35,20.00
2009,06,15,13,36,20.20
2009,06,15,13,37,20.30
2009,06,15,13,38,20.30
2009,06,15,13,39,20.40
2009,06,15,13,40,20.50
2009,06,15,13,41,20.60
2009,06,15,13,42,20.70
2009,06,15,13,43,20.80
2009,06,15,13,44,21.00
2009,06,15,13,45,21.00
2009,06,15,13,46,21.10
2009,06,15,13,47,21.10
2009,06,15,13,48,21.10
2009,06,15,13,49,21.10
2009,06,15,13,50,21.00
2009,06,15,13,51,20.90
2009,06,15,13,52,20.80
2009,06,15,13,53,20.80
2009,06,15,13,54,20.70
2009,06,15,13,55,20.70
2009,06,15,13,56,20.60
2009,06,15,13,57,20.50
2009,06,15,13,58,20.40
2009,06,15,13,59,20.40
2009,06,15,14,00,20.40
2009,06,15,14,01,20.30
2009,06,15,14,02,20.30
2009,06,15,14,03,20.20
2009,06,15,14,04,20.20
2009,06,15,14,05,20.10
2009,06,15,14,06,20.10
2009,06,15,14,07,20.10
2009,06,15,14,08,20.20
2009,06,15,14,09,20.20
2009,06,15,14,10,20.30
2009,06,15,14,11,20.30
2009,06,15,14,12,20.20
2009,06,15,14,13,20.20
2009,06,15,14,14,20.30
2009,06,15,14,15,20.30
2009,06,15,14,16,20.30
2009,06,15,14,17,20.40
2009,06,15,14,18,20.40
2009,06,15,14,19,20.40
2009,06,15,14,20,20.40
2009,06,15,14,21,20.40
2009,06,15,14,22,20.40
2009,06,15,14,23,20.40
2009,06,15,14,24,20.50
2009,06,15,14,25,20.50
2009,06,15,14,26,20.40
2009,06,15,14,27,20.50
2009,06,15,14,28,20.60
2009,06,15,14,29,20.60
2009,06,15,14,30,20.60
2009,06,15,14,31,20.60
2009,06,15,14,32,20.70
2009,06,15,14,33,20.60
2009,06,15,14,34,20.60
2009,06,15,14,35,20.60
2009,06,15,14,36,20.70
2009,06,15,14,37,20.70
2009,06,15,14,38,20.60
2009,06,15,14,39,20.50
2009,06,15,14,40,20.40
2009,06,15,14,41,20.30
2009,06,15,14,42,20.20
2009,06,15,14,43,20.00
2009,06,15,14,44,20.00
2009,06,15,14,45,19.90
2009,06,15,14,46,19.90
2009,06,15,14,47,19.80
2009,06,15,14,48,19.90
2009,06,15,14,49,19.90
2009,06,15,14,50,19.90
2009,06,15,14,51,20.00
2009,06,15,14,52,20.00
2009,06,15,14,53,20.10
2009,06,15,14,54,20.10
2009,06,15,14,55,20.10
2009,06,15,14,56,20.10
2009,06,15,14,57,20.10
2009,06,15,14,58,20.10
2009,06,15,14,59,20.10
2009,06,15,15,00,20.20
2009,06,15,15,01,20.10
2009,06,15,15,02,20.10
2009,06,15,15,03,20.00
2009,06,15,15,04,20.00
2009,06,15,15,05,20.00
2009,06,15,15,06,20.10
2009,06,15,15,07,20.30
2009,06,15,15,08,20.30
2009,06,15,15,09,20.40
2009,06,15,15,10,20.40
2009,06,15,15,11,20.50
2009,06,15,15,12,20.50
2009,06,15,15,13,20.60
2009,06,15,15,14,20.80
2009,06,15,15,15,20.90
2009,06,15,15,16,21.00
2009,06,15,15,17,21.10
2009,06,15,15,18,21.00
2009,06,15,15,19,21.10
2009,06,15,15,20,21.00
2009,06,15,15,21,21.00
2009,06,15,15,22,21.00
2009,06,15,15,23,21.00
2009,06,15,15,24,21.10
2009,06,15,15,25,21.20
2009,06,15,15,26,21.30
2009,06,15,15,27,21.30
2009,06,15,15,28,21.30
2009,06,15,15,29,21.30
2009,06,15,15,30,21.30
2009,06,15,15,31,21.40
2009,06,15,15,32,21.40
2009,06,15,15,33,21.40
2009,06,15,15,34,21.30
2009,06,15,15,35,21.30
2009,06,15,15,36,21.30
2009,06,15,15,37,21.30
2009,06,15,15,38,21.40
2009,06,15,15,39,21.50
2009,06,15,15,40,21.60
2009,06,15,15,41,21.70
2009,06,15,15,42,21.70
2009,06,15,15,43,21.70
2009,06,15,15,44,21.80
2009,06,15,15,45,21.80
2009,06,15,15,46,21.80
2009,06,15,15,47,21.70
2009,06,15,15,48,21.60
2009,06,15,15,49,21.40
2009,06,15,15,50,21.30
2009,06,15,15,51,21.20
2009,06,15,15,52,21.20
2009,06,15,15,53,21.20
2009,06,15,15,54,21.20
2009,06,15,15,55,21.20
2009,06,15,15,56,21.20
2009,06,15,15,57,21.20
2009,06,15,15,58,21.30
2009,06,15,15,59,21.30
2009,06,15,16,00,21.40
2009,06,15,16,01,21.40
2009,06,15,16,02,21.40
2009,06,15,16,03,21.40
2009,06,15,16,04,21.40
2009,06,15,16,05,21.40
2009,06,15,16,06,21.30
2009,06,15,16,07,21.10
2009,06,15,16,08,21.10
2009,06,15,16,09,21.10
2009,06,15,16,10,21.10
2009,06,15,16,11,21.20
2009,06,15,16,12,21.30
2009,06,15,16,13,21.30
2009,06,15,16,14,21.30
2009,06,15,16,15,21.40
2009,06,15,16,16,21.60
2009,06,15,16,17,21.80
2009,06,15,16,18,21.90
2009,06,15,16,19,22.00
2009,06,15,16,20,22.20
2009,06,15,16,21,22.10
2009,06,15,16,22,22.00
2009,06,15,16,23,21.90
2009,06,15,16,24,22.00
2009,06,15,16,25,22.00
2009,06,15,16,26,22.10
2009,06,15,16,27,22.20
2009,06,15,16,28,22.20
2009,06,15,16,29,22.30
2009,06,15,16,30,22.20
2009,06,15,16,31,22.20
2009,06,15,16,32,22.20
2009,06,15,16,33,22.20
2009,06,15,16,34,22.20
2009,06,15,16,35,22.20
2009,06,15,16,36,22.20
2009,06,15,16,37,22.10
2009,06,15,16,38,22.00
2009,06,15,16,39,22.00
2009,06,15,16,40,22.10
2009,06,15,16,41,22.20
2009,06,15,16,42,22.30
2009,06,15,16,43,22.30
2009,06,15,16,44,22.20
2009,06,15,16,45,22.20
2009,06,15,16,46,22.00
2009,06,15,16,47,22.00
2009,06,15,16,48,22.00
2009,06,15,16,49,22.00
2009,06,15,16,50,22.00
2009,06,15,16,51,21.90
2009,06,15,16,52,21.80
2009,06,15,16,53,21.80
2009,06,15,16,54,21.80
2009,06,15,16,55,21.80
2009,06,15,16,56,21.90
2009,06,15,16,57,21.90
2009,06,15,16,58,22.00
2009,06,15,16,59,22.10
2009,06,15,17,00,22.10
2009,06,15,17,01,22.10
2009,06,15,17,02,22.10
2009,06,15,17,03,22.10
2009,06,15,17,04,22.10
2009,06,15,17,05,22.10
2009,06,15,17,06,22.10
2009,06,15,17,07,22.10
2009,06,15,17,08,22.10
2009,06,15,17,09,22.10
2009,06,15,17,10,22.20
2009,06,15,17,11,22.20
2009,06,15,17,12,22.20
2009,06,15,17,13,22.20
2009,06,15,17,14,22.20
2009,06,15,17,15,22.20
2009,06,15,17,16,22.20
2009,06,15,17,17,22.10
2009,06,15,17,18,21.90
2009,06,15,17,19,21.90
2009,06,15,17,20,21.90
2009,06,15,17,21,21.90
2009,06,15,17,22,21.90
2009,06,15,17,23,21.90
2009,06,15,17,24,21.90
2009,06,15,17,25,22.00
2009,06,15,17,26,22.10
2009,06,15,17,27,22.20
2009,06,15,17,28,22.30
2009,06,15,17,29,22.30
2009,06,15,17,30,22.30
2009,06,15,17,31,22.30
2009,06,15,17,32,22.20
2009,06,15,17,33,22.20
2009,06,15,17,34,22.10